Weather History for Erie, PA

Change the Weather History Date:

Sunday, March 16, 2014

  Actual Average Record
Temperature  
Mean Temperature 19 °F 36 °F  
Max Temperature 23 °F 44 °F 72 °F (1935)
Min Temperature 14 °F 27 °F 5 °F (1916)
Degree Days  
Heating Degree Days 46 30  
Month to date heating degree days 638 513  
Since 1 July heating degree days 5459 4878  
Cooling Degree Days 0 0  
Month to date cooling degree days 0 0  
Year to date cooling degree days 0 0  
Moisture  
Dew Point 8 °F    
Average Humidity 61    
Maximum Humidity 68    
Minimum Humidity 54    
Precipitation  
Precipitation T in 0.09 in 1.21 in (2004)
Month to date precipitation 1.34 1.44  
Year to date precipitation 7.33 6.78  
Snow  
Snow T in 0.50 in - ()
Month to date snowfall 9.8 8.4  
Since 1 July snowfall 130.4 92.4  
Snow Depth 0.00 in    
Sea Level Pressure  
Sea Level Pressure 30.32 in    
Wind  
Wind Speed 12 mph (NNE)    
Max Wind Speed 20 mph    
Max Gust Speed 24 mph    
Visibility 10 miles    
Events Snow    
T = Trace of Precipitation, MM = Missing Value Source: NWS Daily Summary

Daily Weather History Graph

Daily Weather History Graph

Search for Another Location

Airport:

Trip Planner

Search our weather history database for the weather conditions in past years. The results will help you decide how hot, cold, wet, or windy it might be!

Date:

Astronomy

Mar. 16, 2014 Rise Set
Actual Time 7:30 AM EDT 7:28 PM EDT
Civil Twilight 7:03 AM EDT 7:56 PM EDT
Nautical Twilight 6:30 AM EDT 8:28 PM EDT
Astronomical Twilight 5:57 AM EDT 9:01 PM EDT
Moon 7:45 PM EDT (3/16) 7:13 AM EDT (3/16)
Length of Visible Light 12h 53m
Length of Day
11h 57m
Full, 100% of the Moon is Illuminated
Mar 16
Full
Mar 16
Full
Mar 23
Last Quarter
Mar 30
New
Apr 7
First Quarter

Hourly Weather History & Observations

Time (EDT) Temp. Windchill Dew Point Humidity Pressure Visibility Wind Dir Wind Speed Gust Speed Precip Events Conditions
12:51 AM 24.1 °F 14.4 °F 15.1 °F 69% 30.26 in 10.0 mi North 9.2 mph - N/A   Overcast
1:51 AM 21.9 °F 12.5 °F 12.9 °F 68% 30.27 in 10.0 mi North 8.1 mph - N/A   Overcast
2:51 AM 19.9 °F 8.6 °F 10.0 °F 65% 30.28 in 10.0 mi North 10.4 mph - N/A   Partly Cloudy
3:51 AM 19.9 °F 11.1 °F 8.1 °F 60% 30.30 in 10.0 mi North 6.9 mph - N/A   Partly Cloudy
4:51 AM 19.0 °F 10.0 °F 9.0 °F 65% 30.31 in 10.0 mi North 6.9 mph - N/A   Clear
5:51 AM 18.0 °F 8.7 °F 3.9 °F 54% 30.32 in 10.0 mi North 6.9 mph - N/A   Clear
6:51 AM 16.0 °F 3.6 °F 7.0 °F 68% 30.33 in 10.0 mi North 10.4 mph - N/A   Clear
7:51 AM 16.0 °F 5.3 °F 7.0 °F 68% 30.35 in 10.0 mi North 8.1 mph - N/A   Overcast
8:06 AM 15.8 °F 4.2 °F 8.6 °F 73% 30.32 in 10.0 mi North 9.2 mph - N/A   Overcast
8:51 AM 17.1 °F 5.0 °F 9.0 °F 71% 30.37 in 10.0 mi NNE 10.4 mph - N/A   Overcast
9:14 AM 17.6 °F 3.7 °F 8.6 °F 68% 30.33 in 10.0 mi NNE 13.8 mph - N/A   Scattered Clouds
9:38 AM 17.6 °F 4.3 °F 8.6 °F 68% 30.33 in 10.0 mi NE 12.7 mph - N/A   Mostly Cloudy
9:51 AM 18.0 °F 3.6 °F 8.1 °F 65% 30.38 in 10.0 mi NE 15.0 mph - N/A   Overcast
10:51 AM 17.1 °F 2.5 °F 8.1 °F 68% 30.40 in 6.0 mi NNE 15.0 mph 20.7 mph 0.00 in Snow Light Snow
11:51 AM 18.0 °F 3.1 °F 8.1 °F 65% 30.40 in 7.0 mi NNE 16.1 mph 23.0 mph 0.00 in Snow Light Snow
12:24 PM 19.4 °F 5.0 °F 6.8 °F 58% 30.37 in 10.0 mi ENE 16.1 mph - 0.00 in   Scattered Clouds
12:51 PM 19.0 °F 5.0 °F 7.0 °F 59% 30.40 in 10.0 mi NE 15.0 mph 20.7 mph 0.00 in   Partly Cloudy
1:51 PM 19.9 °F 6.7 °F 8.1 °F 60% 30.40 in 10.0 mi NE 13.8 mph 20.7 mph N/A   Clear
2:51 PM 19.9 °F 6.7 °F 8.1 °F 60% 30.37 in 10.0 mi NE 13.8 mph - N/A   Partly Cloudy
3:51 PM 19.9 °F 6.7 °F 8.1 °F 60% 30.34 in 10.0 mi NE 13.8 mph 21.9 mph N/A   Clear
4:51 PM 18.0 °F 3.6 °F 6.1 °F 60% 30.31 in 10.0 mi NE 15.0 mph 21.9 mph N/A   Clear
5:51 PM 18.0 °F 3.6 °F 5.0 °F 57% 30.31 in 10.0 mi NNE 15.0 mph 21.9 mph N/A   Clear
6:51 PM 17.1 °F 3.0 °F 5.0 °F 59% 30.29 in 10.0 mi NE 13.8 mph - N/A   Clear
7:51 PM 16.0 °F 1.7 °F 6.1 °F 65% 30.27 in 10.0 mi NE 13.8 mph - N/A   Clear
8:51 PM 16.0 °F 2.9 °F 6.1 °F 65% 30.28 in 10.0 mi NE 11.5 mph - N/A   Clear
9:51 PM 16.0 °F 2.3 °F 7.0 °F 68% 30.26 in 10.0 mi NE 12.7 mph - N/A   Clear
10:51 PM 15.1 °F 0.5 °F 6.1 °F 68% 30.25 in 10.0 mi NE 13.8 mph 21.9 mph N/A   Clear
11:51 PM 15.1 °F 0.5 °F 6.1 °F 68% 30.22 in 10.0 mi NE 13.8 mph - N/A   Clear